[[{"header":{"parameterUnit":"m.s-1","parameterCategory":1,"la1":30.2992,"la2":30.254,"lo1":-89.0895,"lo2":-89.0443,"dy":0.0025,"dx":0.0025,"nx":19,"ny":19,"refTime":"2026-05-11T21:00:00:Z","depth":0,"parameterNumber":2,"parameterNumberName":"U-component_of_WINDS"},"data":[0,0,0,-3.8462,-3.8463,-3.8494,-3.8494,-3.8563,-3.8564,0,0,0,0,0,0,0,0,0,0,0,-3.8466,-3.8467,-3.8462,-3.8463,-3.8494,-3.8494,-3.8563,-3.8564,0,0,0,0,0,0,0,0,0,0,0,-3.8466,-3.8467,-3.8468,-3.8463,-3.8494,-3.8494,-3.8562,-3.8529,0,0,0,0,0,0,0,0,0,0,-3.8495,-3.8511,-3.8467,-3.8468,-3.8463,-3.8494,-3.8494,-3.8527,-3.8532,-3.856,0,-3.8586,0,-3.8576,-3.857,-3.857,0,0,0,-3.8453,-3.8508,-3.8504,-3.8468,-3.8464,-3.8494,-3.8477,-3.8529,-3.8534,-3.8566,-3.8587,-3.8589,-3.8577,-3.857,-3.8571,-3.8765,-3.8767,0,0,-3.8451,-3.848,-3.8501,-3.8507,-3.85,-3.8476,-3.8478,-3.8532,-3.8558,-3.8587,-3.859,-3.8578,-3.8571,-3.8572,-3.8764,-3.8766,0,0,0,-3.8453,-3.8479,-3.8473,-3.8505,-3.8509,-3.8477,-3.848,-3.8555,-3.8551,-3.859,-3.8579,-3.8572,-3.8573,-3.8762,-3.8764,-3.8863,0,0,0,-3.8451,-3.848,-3.8473,-3.8491,-3.8508,-3.8531,-3.8502,-3.8547,-3.8552,-3.8579,-3.8572,-3.8574,-3.8761,-3.8763,-3.8856,-3.8905,0,0,0,-3.846,-3.8481,-3.849,-3.8492,-3.8506,-3.853,-3.8528,-3.8547,-3.8546,-3.857,-3.8574,-3.876,-3.8763,-3.8851,-3.8896,-3.8969,0,0,0,-3.8477,-3.8574,-3.8492,-3.8596,-3.8506,-3.8588,-3.8527,-3.8587,-3.8619,-3.8572,-3.8761,-3.8764,-3.8849,-3.8891,-3.8964,-3.9039,-3.9071,0,0,-3.8615,-3.8591,-3.8651,-3.8578,-3.8683,-3.8581,-3.8702,-3.8704,-3.868,-3.8739,-3.8744,-3.8859,-3.8896,-3.8968,-3.9236,-3.9263,0,0,0,-3.8705,-3.8748,-3.877,-3.8801,-3.8805,-3.8815,-3.8796,-3.8798,-3.8847,-3.8715,-3.8901,-3.8922,-3.8964,-3.8999,-3.9021,-3.9058,-3.878,-3.878,-3.8779,-3.8943,-3.8908,-3.9006,-3.8977,-3.9009,-3.8991,-3.9016,-3.9016,-3.8969,-3.9014,-3.9033,-3.92,-3.9242,-3.9258,-3.9297,-3.9066,-3.9066,-3.9066,-3.9067,-3.9147,-3.9206,-3.9145,-3.9219,-3.9184,-3.9246,-3.9234,-3.9201,-3.9258,-3.9181,-3.9216,-3.914,-3.9288,-3.932,-3.9074,-3.9072,-3.9072,-3.9071,-3.907,-3.9303,-3.9326,-3.9326,-3.9373,-3.9414,-3.938,-3.9439,-3.9403,-3.937,-3.9405,-3.9425,-3.9423,-3.9422,-3.9416,-3.9416,-3.9417,-3.9418,-3.9418,-3.9418,-3.9467,-3.9464,-3.9517,-3.9533,-3.9552,-3.9573,-3.9558,-3.9577,-3.959,-3.956,-3.956,-3.9515,-3.9306,-3.9258,-3.9427,-3.9426,-3.9425,-3.9424,-3.9423,-3.9695,-3.9639,-3.972,-3.974,-3.9759,-3.9806,-3.9759,-3.9803,-3.9813,-3.9845,-3.9792,-3.9641,-3.9615,-3.9597,-3.9558,-3.9795,-3.9795,-3.9795,-3.9795,-3.9831,-3.9814,-3.9892,-3.9927,-3.9956,-3.9924,-4.0025,-4.0018,-4.0001,-4.0007,-3.9967,-3.9909,-3.9892,-3.9877,-3.9853,-3.9815,-4.0113,-4.0113,-4.0113,-3.9973,-3.9957,-4.0047,-4.0028,-4.0042,-4.0057,-4.0152,-4.02,-4.0168,-4.0125,-4.0013,-4.0,-3.9906,-3.9876,-3.9834,-3.9797,-3.9728,0,0]},{"header":{"parameterUnit":"m.s-1","parameterCategory":1,"la1":30.2992,"la2":30.254,"lo1":-89.0895,"lo2":-89.0443,"dy":0.0025,"dx":0.0025,"nx":19,"ny":19,"refTime":"2026-05-11T21:00:00:Z","depth":0,"parameterNumber":3,"parameterNumberName":"V-component_of_WINDS"},"data":[0,0,0,-1.5555,-1.5553,-1.5449,-1.5448,-1.5339,-1.5338,0,0,0,0,0,0,0,0,0,0,0,-1.56,-1.56,-1.5555,-1.5553,-1.5449,-1.5448,-1.5339,-1.5338,0,0,0,0,0,0,0,0,0,0,0,-1.56,-1.56,-1.56,-1.5553,-1.5449,-1.5448,-1.5339,-1.5409,0,0,0,0,0,0,0,0,0,0,-1.5507,-1.5562,-1.56,-1.56,-1.5552,-1.5449,-1.5448,-1.5412,-1.5405,-1.5396,0,-1.5392,0,-1.5364,-1.5332,-1.5332,0,0,0,-1.5542,-1.5569,-1.5527,-1.56,-1.5551,-1.5449,-1.5493,-1.5408,-1.54,-1.5387,-1.5391,-1.5386,-1.5362,-1.5332,-1.5331,-1.532,-1.532,0,0,-1.5548,-1.5589,-1.5533,-1.5523,-1.554,-1.5496,-1.549,-1.5402,-1.5409,-1.539,-1.5383,-1.536,-1.5331,-1.533,-1.5319,-1.532,0,0,0,-1.5572,-1.5594,-1.5554,-1.5528,-1.5507,-1.5493,-1.5486,-1.5413,-1.5397,-1.5382,-1.5359,-1.5331,-1.533,-1.5319,-1.532,-1.5385,0,0,0,-1.5575,-1.5607,-1.5557,-1.5582,-1.551,-1.5459,-1.5499,-1.5403,-1.5392,-1.5359,-1.5331,-1.5329,-1.5318,-1.5319,-1.5382,-1.541,0,0,0,-1.5602,-1.561,-1.56,-1.5584,-1.5541,-1.5459,-1.5438,-1.54,-1.5379,-1.5332,-1.5329,-1.5318,-1.5319,-1.538,-1.5406,-1.5423,0,0,0,-1.5643,-1.5658,-1.5602,-1.5609,-1.5542,-1.55,-1.5438,-1.5404,-1.5371,-1.533,-1.5318,-1.5319,-1.5379,-1.5403,-1.542,-1.5448,-1.5462,0,0,-1.5685,-1.5664,-1.5665,-1.5612,-1.5592,-1.5512,-1.55,-1.5431,-1.5387,-1.5345,-1.5344,-1.5383,-1.5405,-1.5422,-1.5519,-1.5531,0,0,0,-1.5693,-1.5695,-1.568,-1.5652,-1.5599,-1.5558,-1.5485,-1.546,-1.5422,-1.5374,-1.539,-1.5402,-1.541,-1.5422,-1.5432,-1.5438,-1.5325,-1.5325,-1.5325,-1.5813,-1.5758,-1.5758,-1.5691,-1.5664,-1.559,-1.5564,-1.5517,-1.5467,-1.5472,-1.5461,-1.5526,-1.5541,-1.5548,-1.5555,-1.5467,-1.5467,-1.5467,-1.5467,-1.5873,-1.5869,-1.5804,-1.5781,-1.5723,-1.5702,-1.5632,-1.5598,-1.5572,-1.553,-1.5534,-1.5498,-1.5563,-1.5566,-1.5472,-1.5471,-1.547,-1.547,-1.547,-1.5949,-1.5938,-1.5907,-1.5862,-1.5833,-1.5763,-1.5742,-1.5688,-1.5637,-1.5641,-1.5626,-1.5625,-1.5621,-1.5637,-1.5637,-1.5637,-1.5637,-1.5638,-1.5638,-1.6043,-1.6006,-1.5995,-1.5942,-1.5918,-1.5879,-1.5805,-1.578,-1.5739,-1.5701,-1.5701,-1.5655,-1.5577,-1.5562,-1.5641,-1.5641,-1.564,-1.564,-1.564,-1.6132,-1.6104,-1.6088,-1.6064,-1.5998,-1.5975,-1.5905,-1.586,-1.583,-1.5823,-1.5773,-1.5724,-1.5699,-1.5691,-1.5678,-1.5783,-1.5783,-1.5783,-1.5783,-1.6201,-1.6182,-1.6155,-1.6122,-1.6081,-1.6018,-1.6003,-1.5946,-1.5882,-1.5861,-1.5836,-1.5813,-1.5807,-1.5786,-1.5776,-1.5764,-1.5887,-1.5887,-1.5887,-1.6255,-1.623,-1.6229,-1.6167,-1.6111,-1.6065,-1.6051,-1.6015,-1.5935,-1.5891,-1.5844,-1.584,-1.5802,-1.5791,-1.5751,-1.5736,-1.5712,0,0]}]]